Location: Gandikunta
(16.3784°N, 80.8378°E)
Time: 22:12:00
(UTC+00:00)

Cosmos 909 Rocket - Pass Details

Date: 19 May 2025
Orbit: 985 x 2094 km, 65.9° (Epoch: 18 June)

Event Time Altitude Azimuth Distance (km) Brightness Sun altitude
Rises 22:52:23 0° 337° (NNW) 4,195 7.4 -16.7°
Reaches altitude 10° 22:55:20 10° 338° (NNW) 3,095 6.7 -16.1°
Maximum altitude 23:02:27 89° 250° (WSW) 1,044 4.1 -14.6°
Drops below altitude 10° 23:08:42 10° 159° (SSE) 2,736 6.3 -13.2°
Sets 23:11:10 0° 159° (SSE) 3,679 7.0 -12.7°
